GW4883 Weather Reports


time (UTC)temp
C
wind
direction
speed
KPH
gust
KPH
rain 1hr
cm
rain 24hr
cm
rain mn
cm
humidity
%
barometer
mb
20260510045004 24 127 6.4 14.5 0.00 0.00 0.00 58 1008.8
20260510044509 24 136 6.4 16.1 0.00 0.00 0.00 57 1008.9
20260510044004 24 126 4.8 16.1 0.00 0.00 0.00 57 1009.0
20260510043504 24 179 4.8 16.1 0.00 0.00 0.00 57 1009.0
20260510043006 24 171 8.0 14.5 0.00 0.00 0.00 57 1008.9
20260510042503 24 121 9.7 16.1 0.00 0.00 0.00 57 1009.0
20260510042004 24 148 4.8 16.1 0.00 0.00 0.00 57 1009.0
20260510041515 24 152 6.4 14.5 0.00 0.00 0.00 57 1009.0
20260510041007 24 123 6.4 14.5 0.00 0.00 0.00 58 1009.1
20260510040504 24 105 6.4 14.5 0.00 0.00 0.00 58 1009.1
20260510040012 24 164 4.8 11.3 0.00 0.00 0.00 58 1009.1
20260510035505 24 138 3.2 9.7 0.00 0.00 0.00 59 1009.3
20260510035004 24 110 1.6 8.0 0.00 0.00 0.00 59 1009.3
20260510034508 24 146 3.2 11.3 0.00 0.00 0.00 59 1009.2
20260510034004 24 99 4.8 11.3 0.00 0.00 0.00 59 1009.2
20260510033504 24 113 3.2 6.4 0.00 0.00 0.00 60 1009.3
20260510033012 24 169 3.2 6.4 0.00 0.00 0.00 60 1009.4
20260510032506 24 119 1.6 6.4 0.00 0.00 0.00 60 1009.4
20260510032004 25 178 3.2 6.4 0.00 0.00 0.00 61 1009.3
20260510031510 25 144 1.6 6.4 0.00 0.00 0.00 61 1009.3
20260510031005 25 130 1.6 6.4 0.00 0.00 0.00 61 1009.4
20260510030503 25 100 1.6 6.4 0.00 0.00 0.00 60 1009.3
20260510030011 25 86 3.2 6.4 0.00 0.00 0.00 60 1009.3
20260510025504 25 128 1.6 9.7 0.00 0.00 0.00 60 1009.3
20260510025009 25 113 3.2 9.7 0.00 0.00 0.00 60 1009.2
20260510024512 25 102 1.6 9.7 0.00 0.00 0.00 60 1009.1
20260510024005 25 119 3.2 11.3 0.00 0.00 0.00 60 1009.0
20260510023504 25 111 3.2 11.3 0.00 0.00 0.00 60 1008.9
20260510023030 25 106 3.2 11.3 0.00 0.00 0.00 60 1008.9
20260510022504 25 118 4.8 11.3 0.00 0.00 0.00 59 1008.8
20260510022004 26 109 3.2 9.7 0.00 0.00 0.00 59 1008.8
20260510021511 26 128 4.8 12.9 0.00 0.00 0.00 58 1008.8
20260510021004 26 113 4.8 12.9 0.00 0.00 0.00 58 1008.9
20260510020506 26 121 3.2 11.3 0.00 0.00 0.00 57 1008.7
20260510020009 26 124 4.8 12.9 0.00 0.00 0.00 57 1008.6
20260510015504 26 110 4.8 12.9 0.00 0.00 0.00 56 1008.6
20260510015003 26 136 3.2 11.3 0.00 0.00 0.00 56 1008.6
20260510014512 26 130 3.2 11.3 0.00 0.00 0.00 55 1008.5
20260510014004 26 185 4.8 9.7 0.00 0.00 0.00 55 1008.4
20260510013507 27 208 3.2 11.3 0.00 0.00 0.00 54 1008.3
20260510013014 27 130 3.2 9.7 0.00 0.00 0.00 53 1008.3
20260510012503 27 115 1.6 9.7 0.00 0.00 0.00 52 1008.3
20260510012003 27 171 1.6 8.0 0.00 0.00 0.00 52 1008.3
20260510011518 28 175 1.6 8.0 0.00 0.00 0.00 51 1008.1
20260510011008 28 123 3.2 6.4 0.00 0.00 0.00 51 1008.1
20260510010505 28 148 3.2 9.7 0.00 0.00 0.00 50 1008.0
20260510010016 28 87 1.6 11.3 0.00 0.00 0.00 50 1007.9
20260510005507 28 107 3.2 11.3 0.00 0.00 0.00 49 1007.9
20260510005004 28 43 1.6 11.3 0.00 0.00 0.00 49 1007.9
20260510004513 29 103 4.8 11.3 0.00 0.00 0.00 48 1007.9
20260510004004 29 136 3.2 11.3 0.00 0.00 0.00 48 1007.9
20260510003507 30 119 3.2 11.3 0.00 0.00 0.00 47 1007.9
20260510003016 30 117 3.2 12.9 0.00 0.00 0.00 47 1007.9
20260510002504 30 140 4.8 12.9 0.00 0.00 0.00 46 1007.9
20260510002006 30 111 3.2 16.1 0.00 0.00 0.00 45 1007.9
20260510001516 31 100 3.2 16.1 0.00 0.00 0.00 45 1007.9
20260510001004 31 111 4.8 11.3 0.00 0.00 0.00 43 1007.9
20260510000504 31 92 4.8 11.3 0.00 0.00 0.00 43 1007.9
20260510000007 31 140 3.2 6.4 0.00 0.00 0.00 42 1007.9
20260509235503 31 114 1.6 6.4 0.00 0.00 0.00 41 1008.0
20260509235003 31 111 3.2 9.7 0.00 0.00 0.00 42 1008.0
20260509234511 31 128 3.2 11.3 0.00 0.00 0.00 42 1008.0
20260509234004 31 219 4.8 11.3 0.00 0.00 0.00 42 1008.0
20260509233505 31 103 3.2 6.4 0.00 0.00 0.00 42 1008.1
20260509233016 31 97 1.6 12.9 0.00 0.00 0.00 41 1008.1
20260509232504 32 117 4.8 12.9 0.00 0.00 0.00 40 1008.2
20260509232004 32 181 3.2 9.7 0.00 0.00 0.00 40 1008.1
20260509231515 32 135 1.6 9.7 0.00 0.00 0.00 39 1008.1
20260509231003 32 207 4.8 8.0 0.00 0.00 0.00 40 1008.2
20260509230507 32 192 1.6 8.0 0.00 0.00 0.00 40 1008.1
20260509230005 32 102 3.2 6.4 0.00 0.00 0.00 41 1008.2
20260509225504 31 105 0.0 6.4 0.00 0.00 0.00 42 1008.3
20260509225003 31 158 0.0 4.8 0.00 0.00 0.00 41 1008.3
20260509224508 31 130 1.6 9.7 0.00 0.00 0.00 39 1008.3
20260509224003 32 148 3.2 9.7 0.00 0.00 0.00 39 1008.2
20260509223506 32 91 3.2 9.7 0.00 0.00 0.00 39 1008.1
20260509223014 32 140 1.6 9.7 0.00 0.00 0.00 40 1008.2
20260509222504 32 101 3.2 8.0 0.00 0.00 0.00 39 1008.2
20260509222005 32 183 1.6 6.4 0.00 0.00 0.00 40 1008.2
20260509221524 32 46 1.6 4.8 0.00 0.00 0.00 40 1008.2
20260509221004 32 88 0.0 4.8 0.00 0.00 0.00 41 1008.2
20260509220508 32 194 1.6 9.7 0.00 0.00 0.00 41 1008.3
20260509220019 32 161 3.2 8.0 0.00 0.00 0.00 40 1008.3
20260509215504 32 203 1.6 11.3 0.00 0.00 0.00 40 1008.4
20260509214959 32 128 3.2 12.9 0.00 0.00 0.00 40 1008.5
20260509214509 32 207 4.8 12.9 0.00 0.00 0.00 38 1008.5
20260509214007 32 167 3.2 9.7 0.00 0.00 0.00 39 1008.5
20260509213505 32 91 3.2 9.7 0.00 0.00 0.00 39 1008.4
20260509213012 32 230 1.6 8.0 0.00 0.00 0.00 39 1008.6
20260509212504 32 171 3.2 8.0 0.00 0.00 0.00 41 1008.6
20260509212004 32 148 1.6 9.7 0.00 0.00 0.00 42 1008.6
20260509211532 32 226 3.2 9.7 0.00 0.00 0.00 40 1008.6
20260509211007 32 184 3.2 8.0 0.00 0.00 0.00 40 1008.7
20260509210508 32 170 4.8 8.0 0.00 0.00 0.00 41 1008.8
20260509210020 32 188 3.2 9.7 0.00 0.00 0.00 41 1008.9
20260509205506 32 201 4.8 12.9 0.00 0.00 0.00 41 1008.9
20260509205012 32 121 4.8 12.9 0.00 0.00 0.00 41 1009.0
20260509204520 31 360 3.2 6.4 0.00 0.00 0.00 40 1009.0
20260509204006 31 340 1.6 11.3 0.00 0.00 0.00 43 1009.1
20260509203504 31 20 3.2 11.3 0.00 0.00 0.00 40 1009.2
20260509203017 31 102 3.2 8.0 0.00 0.00 0.00 43 1009.3
20260509202507 31 185 0.0 4.8 0.00 0.00 0.00 45 1009.3
20260509202004 31 211 1.6 4.8 0.00 0.00 0.00 41 1009.3
20260509201515 31 325 1.6 6.4 0.00 0.00 0.00 41 1009.4
20260509201004 31 69 1.6 11.3 0.00 0.00 0.00 43 1009.4
20260509200507 31 16 3.2 11.3 0.00 0.00 0.00 42 1009.5
20260509200020 31 297 1.6 11.3 0.00 0.00 0.00 41 1009.5
20260509195506 31 176 3.2 6.4 0.00 0.00 0.00 42 1009.6
20260509195008 31 288 1.6 6.4 0.00 0.00 0.00 43 1009.7
20260509194521 31 329 0.0 6.4 0.00 0.00 0.00 46 1009.7
20260509194005 30 121 0.0 6.4 0.00 0.00 0.00 44 1009.8
20260509193507 31 349 3.2 6.4 0.00 0.00 0.00 44 1009.9
20260509193024 30 121 1.6 6.4 0.00 0.00 0.00 48 1009.9
20260509192503 30 252 3.2 4.8 0.00 0.00 0.00 47 1010.0
20260509192003 30 276 1.6 11.3 0.00 0.00 0.00 48 1010.1
20260509191513 30 267 3.2 11.3 0.00 0.00 0.00 47 1010.3
20260509191011 30 281 4.8 11.3 0.00 0.00 0.00 48 1010.2
20260509190504 30 159 1.6 8.0 0.00 0.00 0.00 49 1010.1
20260509190021 30 190 1.6 12.9 0.00 0.00 0.00 48 1010.1
20260509185508 30 278 1.6 12.9 0.00 0.00 0.00 48 1010.3
20260509185008 30 287 3.2 11.3 0.00 0.00 0.00 49 1010.4
20260509184525 30 327 1.6 6.4 0.00 0.00 0.00 1010.3
20260509184007 30 157 1.6 11.3 0.00 0.00 0.00 51 1010.4
20260509183510 29 245 4.8 11.3 0.00 0.00 0.00 51 1010.5
20260509183024 29 242 4.8 9.7 0.00 0.00 0.00 53 1010.7
20260509182504 29 333 1.6 4.8 0.00 0.00 0.00 51 1010.8
20260509182007 29 292 3.2 9.7 0.00 0.00 0.00 53 1010.9
20260509181509 28 279 1.6 9.7 0.00 0.00 0.00 55 1011.0
20260509181004 28 252 3.2 8.0 0.00 0.00 0.00 55 1011.0
20260509180504 28 199 3.2 9.7 0.00 0.00 0.00 54 1011.1
20260509180017 27 165 1.6 9.7 0.00 0.00 0.00 56 1011.1
20260509175506 27 300 3.2 11.3 0.00 0.00 0.00 56 1011.2
20260509175006 27 360 1.6 11.3 0.00 0.00 0.00 57 1011.2
20260509174520 27 223 4.8 11.3 0.00 0.00 0.00 55 1011.2
20260509174005 27 305 3.2 11.3 0.00 0.00 0.00 56 1011.3
20260509173506 27 352 1.6 6.4 0.00 0.00 0.00 55 1011.2
20260509173023 27 252 3.2 8.0 0.00 0.00 0.00 56 1011.2
20260509172508 27 223 4.8 14.5 0.00 0.00 0.00 57 1011.3
20260509172010 27 230 4.8 14.5 0.00 0.00 0.00 57 1011.3
20260509171525 27 291 4.8 12.9 0.00 0.00 0.00 57 1011.4
20260509171005 27 305 3.2 9.7 0.00 0.00 0.00 58 1011.5
20260509170507 27 288 3.2 11.3 0.00 0.00 0.00 56 1011.6
20260509170014 27 316 3.2 12.9 0.00 0.00 0.00 58 1011.5
20260509165506 27 322 6.4 11.3 0.00 0.00 0.00 59 1011.4
20260509165003 26 232 3.2 11.3 0.00 0.00 0.00 60 1011.5
20260509164519 27 274 4.8 11.3 0.00 0.00 0.00 56 1011.6
20260509164008 27 283 4.8 9.7 0.00 0.00 0.00 58 1011.7
20260509163510 26 213 3.2 12.9 0.00 0.00 0.00 58 1011.9
20260509163029 27 290 6.4 12.9 0.00 0.00 0.00 57 1011.7
20260509162509 27 173 1.6 11.3 0.00 0.00 0.00 58 1011.7
20260509162011 26 274 4.8 9.7 0.00 0.00 0.00 58 1011.7
20260509161527 26 185 1.6 11.3 0.00 0.00 0.00 60 1011.8
20260509161008 26 275 4.8 12.9 0.00 0.00 0.00 58 1011.8
20260509160510 26 290 4.8 12.9 0.00 0.00 0.00 57 1011.9
20260509160024 26 279 4.8 9.7 0.00 0.00 0.00 57 1011.9
20260509155506 26 229 4.8 9.7 0.00 0.00 0.00 59 1011.8
20260509155003 26 329 4.8 11.3 0.00 0.00 0.00 60 1011.6
20260509154517 26 279 4.8 12.9 0.00 0.00 0.00 61 1011.6
20260509154006 26 314 3.2 12.9 0.00 0.00 0.00 61 1011.5
20260509153509 26 338 1.6 11.3 0.00 0.00 0.00 62 1011.5
20260509153024 26 250 3.2 11.3 0.00 0.00 0.00 64 1011.6
20260509152507 25 277 3.2 8.0 0.00 0.00 0.00 67 1011.7
20260509152011 25 255 1.6 8.0 0.00 0.00 0.00 66 1011.7
20260509151528 25 19 3.2 8.0 0.00 0.00 0.00 66 1011.7
20260509151004 25 284 3.2 11.3 0.00 0.00 0.00 68 1011.7
20260509150503 25 286 3.2 11.3 0.00 0.00 0.00 70 1011.7
20260509150009 24 302 4.8 14.5 0.00 0.00 0.00 70 1011.8
20260509145506 24 302 3.2 14.5 0.00 0.00 0.00 71 1011.6
20260509145007 23 329 1.6 8.0 0.00 0.00 0.00 71 1011.6
20260509144514 23 311 1.6 11.3 0.00 0.00 0.00 71 1011.6
20260509144004 23 308 3.2 11.3 0.00 0.00 0.00 74 1011.7
20260509143504 23 313 3.2 11.3 0.00 0.00 0.00 73 1011.8
20260509143028 23 337 4.8 9.7 0.00 0.00 0.00 72 1011.9
20260509142500 22 341 1.6 6.4 0.00 0.00 0.00 75 1011.9
20260509141959 22 280 3.2 6.4 0.00 0.00 0.00 76 1011.9
20260509141503 22 248 1.6 6.4 0.00 0.00 0.00 79 1011.9
20260509141006 21 5 3.2 6.4 0.00 0.00 0.00 78 1012.0
20260509140503 21 257 1.6 6.4 0.00 0.00 0.00 79 1012.0
20260509140007 21 295 1.6 8.0 0.00 0.00 0.00 80 1011.9
20260509135505 21 309 0.0 12.9 0.00 0.00 0.00 80 1011.9
20260509135004 21 9 3.2 14.5 0.00 0.00 0.00 80 1011.8
20260509134513 21 11 6.4 14.5 0.00 0.00 0.00 79 1011.6
20260509134004 21 318 6.4 14.5 0.00 0.00 0.00 80 1011.6
20260509133504 20 336 4.8 14.5 0.00 0.00 0.00 80 1011.5
20260509133016 20 338 4.8 12.9 0.00 0.00 0.00 81 1011.6
20260509132507 19 12 6.4 12.9 0.00 0.00 0.00 81 1011.6
20260509132009 19 24 4.8 11.3 0.00 0.00 0.00 81 1011.7
20260509131503 18 350 4.8 11.3 0.00 0.00 0.00 82 1011.7
20260509131001 18 360 4.8 6.4 0.00 0.00 0.00 82 1011.6
20260509130505 18 352 3.2 4.8 0.00 0.00 0.00 83 1011.7
20260509130013 17 352 1.6 4.8 0.00 0.00 0.00 83 1011.8
20260509125504 17 341 1.6 3.2 0.00 0.00 0.00 84 1011.7
20260509125004 17 332 0.0 3.2 0.00 0.00 0.00 85 1011.7
20260509124511 17 302 0.0 3.2 0.00 0.00 0.00 85 1011.7
20260509124005 17 338 0.0 3.2 0.00 0.00 0.00 85 1011.6
20260509123504 17 333 1.6 3.2 0.00 0.00 0.00 85 1011.5
20260509123018 17 171 0.0 1.6 0.00 0.00 0.00 85 1011.7
20260509122508 17 171 0.0 0.0 0.00 0.00 0.00 84 1011.8
20260509122008 16 171 0.0 0.0 0.00 0.00 0.00 84 1011.6
20260509121523 17 171 0.0 0.0 0.00 0.00 0.00 83 1011.6
20260509121007 17 171 0.0 1.6 0.00 0.00 0.00 83 1011.6
20260509120508 17 171 0.0 4.8 0.00 0.00 0.00 83 1011.3
20260509120013 17 173 0.0 4.8 0.00 0.00 0.00 82 1011.3
20260509115503 17 127 3.2 4.8 0.00 0.00 0.00 81 1011.6
20260509115005 17 153 0.0 3.2 0.00 0.00 0.00 81 1011.4
20260509114508 17 153 0.0 3.2 0.00 0.00 0.00 81 1011.2
20260509114009 17 153 1.6 3.2 0.00 0.00 0.00 80 1011.3
20260509113505 17 231 0.0 3.2 0.00 0.00 0.00 79 1011.0
20260509113014 18 282 0.0 3.2 0.00 0.00 0.00 79 1010.7
20260509112506 18 266 1.6 4.8 0.00 0.00 0.00 78 1010.7
20260509112005 18 297 0.0 4.8 0.00 0.00 0.00 78 1010.5
20260509111519 18 251 0.0 3.2 0.00 0.00 0.00 77 1010.3
20260509111005 18 288 1.6 4.8 0.00 0.00 0.00 76 1010.1
20260509110510 18 22 0.0 14.5 0.00 0.00 0.00 77 1010.0
20260509110025 18 19 3.2 14.5 0.00 0.00 0.00 77 1009.8
20260509105507 18 5 4.8 9.7 0.00 0.00 0.00 77 1009.8
20260509105003 18 17 3.2 9.7 0.00 0.00 0.00 77 1009.7
20260509104509 18 5 3.2 8.0 0.00 0.00 0.00 78 1009.8
20260509104003 18 352 3.2 9.7 0.00 0.00 0.00 81 1009.9
20260509103504 18 27 4.8 9.7 0.00 0.00 0.00 84 1010.0
20260509103012 18 10 3.2 8.0 0.00 0.00 0.00 85 1010.1
20260509102504 18 63 3.2 8.0 0.00 0.00 0.00 85 1010.0
20260509102006 17 22 4.8 8.0 0.00 0.00 0.00 85 1010.3
20260509101518 17 352 3.2 6.4 0.00 0.00 0.00 85 1010.4
20260509101008 17 360 3.2 4.8 0.00 0.00 0.00 85 1010.3
20260509100505 18 5 0.0 3.2 0.00 0.00 0.00 85 1010.4
20260509100023 17 5 3.2 8.0 0.00 0.00 0.00 85 1010.4
20260509095508 17 9 1.6 11.3 0.00 0.00 0.00 85 1010.4
20260509095009 17 352 4.8 11.3 0.00 0.00 0.00 85 1010.4
20260509094525 17 22 4.8 17.7 0.00 0.00 0.00 85 1010.3
20260509094010 17 333 4.8 19.3 0.00 0.00 0.00 85 1010.4
20260509093505 17 352 8.0 19.3 0.00 0.00 0.00 86 1010.2
20260509093009 17 15 11.3 24.1 0.00 0.00 0.00 86 1010.5
20260509092504 17 350 9.7 24.1 0.00 0.00 0.00 86 1010.2
20260509092003 18 336 6.4 16.1 0.00 0.00 0.00 88 1010.3
20260509091526 17 207 4.8 14.5 0.00 0.00 0.00 87 1008.1
20260509091003 17 206 3.2 8.0 0.00 0.00 0.00 86 1008.0
20260509090506 17 202 1.6 11.3 0.00 0.00 0.00 85 1007.4
20260509090021 17 149 3.2 16.1 0.00 0.00 0.00 84 1006.7
20260509085508 17 195 4.8 16.1 0.00 0.00 0.00 83 1006.4
20260509085005 17 202 6.4 16.1 0.00 0.00 0.00 81 1006.3
20260509084529 17 160 8.0 16.1 0.00 0.00 0.00 79 1006.4
20260509084008 17 102 3.2 11.3 0.00 0.00 0.00 78 1007.1
20260509083508 17 136 4.8 11.3 0.00 0.00 0.00 77 1008.0
20260509083027 17 153 3.2 6.4 0.00 0.00 0.00 76 1008.5
20260509082503 17 122 1.6 6.4 0.00 0.00 0.00 75 1008.6
20260509082004 18 123 1.6 9.7 0.00 0.00 0.00 75 1009.0
20260509081511 18 167 1.6 22.5 0.00 0.00 0.00 75 1009.6
20260509081005 18 242 6.4 22.5 0.00 0.00 0.00 74 1009.5
20260509080504 18 251 4.8 14.5 0.00 0.00 0.00 73 1009.6
20260509080024 19 232 1.6 6.4 0.00 0.00 0.00 75 1009.4
20260509075505 19 263 0.0 3.2 0.00 0.00 0.00 74 1009.1
20260509075010 19 301 0.0 0.0 0.00 0.00 0.00 73 1009.1
20260509074522 19 301 0.0 0.0 0.00 0.00 0.00 72 1009.2
20260509074007 20 301 0.0 0.0 0.00 0.00 0.00 72 1009.3
20260509073508 20 301 0.0 1.6 0.00 0.00 0.00 71 1009.5
20260509073046 20 301 0.0 6.4 0.00 0.00 0.00 70 1009.6
20260509072508 20 311 0.0 8.0 0.00 0.00 0.00 69 1009.6
20260509072012 20 76 3.2 8.0 0.00 0.00 0.00 70 1009.8
20260509071511 20 48 4.8 8.0 0.00 0.00 0.00 70 1010.2
20260509071004 20 47 1.6 6.4 0.00 0.00 0.00 70 1010.7
20260509070506 19 352 1.6 6.4 0.00 0.00 0.00 70 1011.3
20260509070019 19 352 1.6 12.9 0.00 0.00 0.00 70 1011.7
20260509065507 19 14 4.8 19.3 0.00 0.00 0.00 71 1012.0
20260509065008 19 346 9.7 19.3 0.00 0.00 0.00 72 1012.5
20260509064519 19 352 8.0 29.0 0.00 0.00 0.00 75 1012.7
20260509064008 20 5 11.3 29.0 0.00 0.00 0.00 75 1012.7
20260509063508 20 258 9.7 20.9 0.00 0.00 0.00 84 1013.1
20260509063029 20 344 11.3 24.1 0.00 0.00 0.00 87 1013.3
20260509062513 20 292 4.8 25.7 0.00 0.00 0.00 88 1013.4
20260509062011 20 275 12.9 25.7 0.00 0.00 0.00 90 1013.5
20260509061527 20 349 4.8 9.7 0.00 0.00 0.00 90 1013.4
20260509061005 20 331 3.2 8.0 0.00 0.00 0.00 90 1013.0
20260509060508 20 15 3.2 8.0 0.00 0.00 0.00 90 1012.7
20260509060016 20 299 1.6 8.0 0.00 0.00 0.00 90 1012.3
20260509055508 20 315 1.6 11.3 0.00 0.00 0.00 90 1012.5
20260509055005 20 315 0.0 16.1 0.00 0.00 0.00 90 1012.4
20260509054527 20 342 6.4 16.1 0.00 0.00 0.00 90 1012.8
20260509054005 20 5 3.2 8.0 0.00 0.00 0.00 90 1012.5
20260509053504 20 28 3.2 6.4 0.00 0.00 0.00 90 1012.2
20260509053025 20 13 0.0 6.4 0.00 0.00 0.00 89 1011.8
20260509052508 20 13 3.2 6.4 0.00 0.00 0.00 89 1011.8
20260509052000 20 360 3.2 6.4 0.00 0.00 0.00 89 1011.7
20260509051505 20 117 0.0 3.2 0.00 0.00 0.00 89 1011.2
20260509051004 20 117 0.0 4.8 0.00 0.00 0.00 89 1011.1
20260509050507 20 117 0.0 4.8 0.00 0.00 0.00 89 1011.0
20260509050011 20 126 0.0 3.2 0.00 0.00 0.00 89 1011.0
20260509045504 20 106 1.6 3.2 0.00 0.00 0.00 88 1011.1